Find Starlink 37268

NORAD ID: 68747 Int'l Des: 2026-082 Owner: SPXS Country: US Constellation: starlink operational
LEOCIRCULARRETROGRADE

Current View

Loading 3D Globe...

About Starlink 37268

Description loading...

Upcoming Passes

Passes for default location (London). Set your location on the main map for personalized predictions.

Altitude History

Loading altitude history...

Two-Line Element Set

1 68747U 26082V 26150.55006449 .00048127 00000-0 88002-3 0 9990
2 68747 97.2854 14.2739 0002511 105.1252 255.0277 15.49224425 6990
Epoch: May 30, 2026 • Age: 14 hours

Current Status

Altitude 421.8 km
Velocity 7.66 km/s
Sub-Earth Point 4.31°N, 78.1°E
Launch Date Apr 15, 2026
Age 0.1 years
Type internet

Technical Details

Classification Payload
Mass 575.00 kg
Dry Mass 530.00 kg
Total Mass 575.00 kg
Length 0.30 m
Diameter 4.10 m
Span 29.00 m
Shape Box + pan
Manufacturer SPXS
Bus Type Starlink V2MO
Phase Status In Orbit
Owner/State SPXS/US

Most Searched